Back to catalog

STARLINK-4410

AliveCommunicationsSSO
NORAD 53204·PAYLOAD·🇺🇸 United States

Launched Jul 22, 2022 from Vandenberg Space Force Base

Loading…

Next Passes (next 24 hours)

TLE

FreshSource: CelesTrak SupGP

Epoch: Sep 14, 2026, 13:27 UTC

1 53204C 22084R   26257.56090278  .00084082  00000+0  23333-2 0  2573
2 53204  97.4821 321.2973 0000851 147.3316 167.6344 15.36923058    17

Track STARLINK-4410 in real time with AllMySat

Download on the App Store